STARLINK-32700 (62311 NORAD) Tracking and Keplerian Element Data

This shows tracking and keplerian element data for the satellite.

Feedback or suggestion? Click here.




ElementValue
Catalog62311
NameSTARLINK-32700
Epoch Orbit824
Epoch Day34.76197992
Epoch Year2025
RAAN251.3545
Inclination53.1565
Eccentricity0.0001079
Argument of Perigee101.6453
Mean Anonmoly258.4673
Mean Motion15.3962104
Decay Rate1.855E-05
L11 62311U 24239L 25034.76197992 .00001855 00000+0 56337-4 0 9993
L22 62311 53.1565 251.3545 0001079 101.6453 258.4673 15.39621040 8242



Live tracking and technical data element details for STARLINK-32700 (NORAD 62311). STARLINK-32700 can be tracked NOW for your location showing map with azimuth and elevation plus other details from your city location.







IsCatalogInMostPopularTable: catalog: 62311, numindb: 47
Update: records affected: 1



GetName: 62311 STARLINK-32700

Hit Count: updated at: Mon, 19 May 2025 01:01:53 GMT